DW9615 Weather Reports


time (UTC)temp
C
wind
direction
speed
KPH
gust
KPH
rain 1hr
cm
rain 24hr
cm
rain mn
cm
humidity
%
barometer
mb
20260509224517 23 175 0.0 19.3 0.00 0.00 0.00 76 1020.1
20260509223015 22 181 1.6 12.9 0.00 0.00 0.00 76 1020.0
20260509221508 21 159 0.0 0.0 0.00 0.00 0.00 77 1020.0
20260509220006 21 165 0.0 0.0 0.00 0.00 0.00 77 1019.9
20260509214501 20 165 0.0 0.0 0.00 0.00 0.00 73 1019.7
20260509213057 18 165 0.0 0.0 0.00 0.00 0.00 54 1019.6
20260509211600 17 170 0.0 0.0 0.00 0.00 0.00 33 1019.3
20260509210106 17 165 0.0 0.0 0.00 0.00 0.00 23 1019.1
20260509204551 16 170 0.0 0.0 0.00 0.00 0.00 17 1018.8
20260509203048 16 179 0.0 0.0 0.00 0.00 0.00 25 1018.7
20260509201555 16 165 0.0 0.0 0.00 0.00 0.00 31 1018.5
20260509200049 16 165 0.0 0.0 0.00 0.00 0.00 36 1018.2
20260509194540 16 165 0.0 0.0 0.00 0.00 0.00 42 1018.0
20260509193039 17 165 0.0 0.0 0.00 0.00 0.00 50 1017.7
20260509191538 17 165 0.0 0.0 0.00 0.00 0.00 55 1017.6
20260509190034 17 165 0.0 0.0 0.00 0.00 0.00 58 1017.5
20260509184539 17 181 0.0 0.0 0.00 0.00 0.00 63 1017.5
20260509183032 18 191 0.0 0.0 0.00 0.00 0.00 65 1017.5
20260509181524 18 170 0.0 0.0 0.00 0.00 0.00 66 1017.5
20260509180024 18 170 0.0 0.0 0.00 0.00 0.00 64 1017.3
20260509174522 18 155 0.0 0.0 0.00 0.00 0.00 65 1017.3
20260509173026 18 159 0.0 0.0 0.00 0.00 0.00 70 1017.3
20260509171528 18 170 0.0 0.0 0.00 0.00 0.00 70 1017.3
20260509170018 18 170 0.0 0.0 0.00 0.00 0.00 71 1017.4
20260509164516 18 165 0.0 0.0 0.00 0.00 0.00 73 1017.4
20260509163024 18 165 0.0 1.6 0.00 0.00 0.00 69 1017.3
20260509161518 18 165 0.0 0.0 0.00 0.00 0.00 68 1017.4
20260509160012 18 170 0.0 0.0 0.00 0.00 0.00 71 1017.6
20260509154510 18 161 0.0 0.0 0.00 0.00 0.00 70 1017.6
20260509153016 18 122 0.0 0.0 0.00 0.00 0.00 73 1017.8
20260509151505 18 139 0.0 0.0 0.00 0.00 0.00 74 1017.8
20260509150003 18 157 0.0 0.0 0.00 0.00 0.00 75 1017.8
20260509144604 18 145 0.0 0.0 0.00 0.00 0.00 76 1018.1
20260509143106 18 143 0.0 0.0 0.00 0.00 0.00 77 1018.2
20260509141557 19 153 0.0 0.0 0.00 0.00 0.00 77 1018.2
20260509140104 19 141 0.0 0.0 0.00 0.00 0.00 78 1018.2
20260509134555 19 153 0.0 0.0 0.00 0.00 0.00 78 1018.3
20260509133101 20 145 0.0 0.0 0.00 0.00 0.00 78 1018.4
20260509131554 20 114 0.0 1.6 0.00 0.00 0.00 78 1018.3
20260509130056 20 139 0.0 3.2 0.00 0.00 0.00 77 1018.4
20260509124558 20 181 0.0 6.4 0.00 0.00 0.00 77 1018.3
20260509123102 20 155 0.0 1.6 0.00 0.00 0.00 77 1018.6
20260509121559 20 165 0.0 4.8 0.00 0.00 0.00 76 1018.6
20260509120051 20 134 0.0 6.4 0.00 0.00 0.00 76 1018.6
20260509114601 20 142 0.0 0.0 0.00 0.00 0.00 75 1018.6
20260509113050 21 158 0.0 14.5 0.00 0.00 0.00 74 1018.6
20260509111549 21 140 0.0 8.0 0.00 0.00 0.00 71 1018.6
20260509110049 21 165 0.0 9.7 0.00 0.00 0.00 69 1018.5
20260509104548 22 159 0.0 14.5 0.00 0.00 0.00 66 1018.6
20260509103047 22 156 0.0 6.4 0.00 0.00 0.00 64 1018.4
20260509101547 22 129 0.0 14.5 0.00 0.00 0.00 63 1018.3
20260509100046 22 131 0.0 8.0 0.00 0.00 0.00 63 1018.3
20260509094549 22 108 0.0 8.0 0.00 0.00 0.00 62 1018.2
20260509093045 22 134 0.0 6.4 0.00 0.00 0.00 62 1018.0
20260509091550 22 138 0.0 6.4 0.00 0.00 0.00 63 1017.8
20260509090058 22 150 0.0 4.8 0.00 0.00 0.00 66 1017.6
20260509084547 21 139 0.0 1.6 0.00 0.00 0.00 68 1017.4
20260509083050 21 84 0.0 0.0 0.00 0.00 0.00 67 1017.3
20260509081542 22 103 0.0 0.0 0.00 0.00 0.00 67 1017.1
20260509080056 22 103 0.0 0.0 0.00 0.00 0.00 65 1017.1
20260509074541 23 140 0.0 0.0 0.00 0.00 0.00 64 1016.8
20260509073039 23 81 0.0 12.9 0.00 0.00 0.00 62 1016.7
20260509071539 23 64 1.6 16.1 0.00 0.00 0.00 61 1016.4
20260509070043 24 69 3.2 16.1 0.00 0.00 0.00 61 1016.2
20260509064538 24 92 3.2 24.1 0.00 0.00 0.00 59 1016.1
20260509063036 25 77 3.2 17.7 0.00 0.00 0.00 57 1016.1
20260509061536 25 75 1.6 16.1 0.00 0.00 0.00 56 1016.0
20260509060035 25 89 6.4 17.7 0.00 0.00 0.00 54 1015.8
20260509054536 26 19 0.0 16.1 0.00 0.00 0.00 54 1015.6
20260509053042 26 78 3.2 19.3 0.00 0.00 0.00 51 1015.5
20260509051535 27 29 3.2 19.3 0.00 0.00 0.00 49 1015.4
20260509050049 28 81 1.6 12.9 0.00 0.00 0.00 42 1015.3
20260509044535 28 108 0.0 4.8 0.00 0.00 0.00 40 1015.3
20260509043040 27 144 3.2 12.9 0.00 0.00 0.00 39 1015.2
20260509041529 28 153 0.0 6.4 0.00 0.00 0.00 38 1015.2
20260509040027 27 42 3.2 14.5 0.00 0.00 0.00 37 1015.2
20260509034525 27 73 0.0 6.4 0.00 0.00 0.00 36 1015.4
20260509033025 27 23 1.6 12.9 0.00 0.00 0.00 35 1015.7
20260509031518 27 119 1.6 11.3 0.00 0.00 0.00 34 1016.0
20260509030021 27 133 0.0 9.7 0.00 0.00 0.00 35 1016.2
20260509024515 27 51 3.2 14.5 0.00 0.00 0.00 33 1016.4
20260509023014 27 175 1.6 16.1 0.00 0.00 0.00 33 1016.5
20260509021611 27 156 1.6 17.7 0.00 0.00 0.00 32 1016.6
20260509020010 26 131 1.6 9.7 0.00 0.00 0.00 33 1016.8
20260509014508 26 158 0.0 6.4 0.00 0.00 0.00 34 1017.1
20260509013006 26 77 0.0 9.7 0.00 0.00 0.00 33 1017.4
20260509011507 26 156 6.4 14.5 0.00 0.00 0.00 30 1017.7
20260509010004 25 149 1.6 12.9 0.00 0.00 0.00 30 1017.8
20260509004603 25 98 3.2 16.1 0.00 0.00 0.00 31 1018.2
20260509003055 24 175 1.6 16.1 0.00 0.00 0.00 32 1018.4
20260509001554 23 133 0.0 6.4 0.00 0.00 0.00 36 1018.5
20260509000052 23 160 1.6 12.9 0.00 0.00 0.00 34 1018.7
20260508234548 23 154 0.0 17.7 0.00 0.00 0.00 36 1018.8
20260508233048 22 99 1.6 9.7 0.00 0.00 0.00 35 1018.7
20260508231545 21 190 0.0 4.8 0.00 0.00 0.00 42 1018.6
20260508230037 20 165 0.0 1.6 0.00 0.00 0.00 48 1018.6